CAPE
0 0 0 0 0 0 0 0 0 0 0 0 0 0 0 0 0 4 7 0 0 255 217 464 255 348 669 1523 1215 932 652 435 319 324 385 379 413 441 436 410 471 560 437 67 0 0 0 0 0
0 0 0 0 0 0 0 0 0 0 0 0 0 0 0 0 0 0 3 30 0 403 392 246 219 373 451 1467 1428 1016 716 715 609 522 495 534 487 409 347 243 274 326 119 13 0 0 0 0 0
0 0 0 0 0 0 0 0 0 0 0 0 0 0 0 0 0 0 0 110 0 357 564 343 279 377 372 1271 1556 1162 893 960 889 757 672 664 455 274 238 129 164 81 24 0 0 0 0 0 0
0 0 0 0 0 0 0 0 0 0 0 0 0 0 0 0 0 0 48 187 105 229 513 813 432 272 390 835 1358 1325 1133 1170 1173 1064 877 660 325 121 119 27 42 0 0 0 0 0 0 0 0
0 0 0 0 0 0 0 0 0 0 0 0 0 0 0 0 0 0 167 216 206 140 315 1169 482 266 476 539 1143 1212 1270 1267 1348 1281 957 590 332 148 85 0 0 0 0 0 0 0 0 0 0
0 0 0 0 0 0 0 0 0 0 0 0 0 0 0 0 0 0 225 267 230 120 258 1589 596 423 445 384 688 1091 1185 1298 1432 1359 1064 659 310 158 46 0 0 0 0 0 0 0 0 0 0
0 0 0 0 0 0 0 0 0 0 0 0 0 0 0 0 0 0 186 225 195 118 233 1728 675 825 589 498 484 861 1019 1108 1225 1171 1002 654 246 106 26 0 0 0 0 0 0 0 0 0 0
0 0 0 0 0 0 1 0 0 0 0 0 0 0 0 0 0 0 56 181 166 97 205 1293 596 592 639 676 561 544 871 936 809 669 516 333 154 66 31 6 0 0 0 0 0 0 0 0 0
0 0 0 0 0 0 0 1 0 0 0 0 0 0 0 0 0 0 0 210 156 118 174 719 485 399 368 325 696 450 432 522 490 416 321 182 43 92 78 12 29 0 0 0 0 0 0 0 0
0 0 0 0 0 0 1 14 4 0 0 0 0 0 0 0 0 0 0 34 163 170 182 266 502 396 352 207 334 459 318 248 200 135 244 158 26 64 53 47 29 63 0 0 0 0 0 0 0
0 0 0 0 0 0 6 8 31 13 0 0 0 0 0 0 0 0 0 0 216 163 189 173 564 691 440 218 243 406 160 185 255 232 301 335 100 101 196 125 177 149 85 0 2 2 0 0 0
0 0 0 0 0 0 0 5 6 20 6 0 0 0 0 0 0 0 0 0 0 199 105 139 421 721 661 295 211 313 116 262 269 317 800 788 405 335 386 265 262 438 131 126 40 74 66 29 7
0 0 0 0 0 0 0 0 0 12 27 0 0 0 0 0 0 0 0 0 0 4 207 66 225 770 1083 1239 310 315 338 233 276 368 769 767 676 546 692 634 242 190 237 145 204 119 82 65 72
0 0 0 0 0 0 0 0 0 0 2 4 0 0 0 0 0 0 0 0 0 3 40 179 150 458 944 1221 1508 864 939 332 398 431 622 1277 969 990 627 633 360 210 101 50 56 107 78 82 107
0 0 0 0 0 0 0 0 0 0 0 0 0 0 0 0 0 0 0 0 0 0 0 0 266 207 817 1173 1287 1090 680 725 471 495 827 1301 1496 1044 810 412 358 260 168 103 78 88 65 70 132
0 0 0 0 0 0 0 0 0 0 0 0 0 0 0 0 0 0 0 0 0 0 0 0 107 238 745 793 992 899 552 439 402 399 488 831 1555 1251 1109 517 366 254 138 102 65 69 136 112 154
0 0 0 0 0 0 0 0 0 0 0 0 0 0 0 0 0 0 0 0 0 0 0 0 12 165 972 868 827 755 634 306 202 180 166 451 908 1185 1044 653 313 374 194 80 28 99 63 212 314
0 0 0 0 0 0 0 0 0 0 0 0 0 0 0 0 0 0 0 0 0 0 0 0 0 80 855 1191 1035 839 526 496 246 143 149 123 328 681 911 429 325 348 133 69 69 86 79 301 486
0 0 0 0 0 0 0 0 0 0 0 0 0 0 0 0 0 0 0 0 0 0 0 0 0 0 13 642 582 1158 1042 514 81 152 89 160 362 282 622 317 239 289 72 257 166 73 432 647 919
0 0 0 0 0 0 0 0 0 0 0 0 0 0 0 0 0 0 0 0 0 0 0 0 0 0 0 10 1087 884 1558 1495 989 425 185 221 284 479 506 527 215 327 385 576 328 540 753 944 1368
0 0 0 0 0 0 0 0 0 0 0 0 0 0 0 0 0 0 0 0 0 0 0 0 0 0 16 22 0 59 423 1469 1990 1491 1092 359 658 662 666 454 527 389 791 501 462 1236 1372 1005 1522
0 0 0 0 0 0 0 0 0 0 0 0 0 0 0 0 0 0 0 0 0 0 0 0 0 0 0 9 18 4 38 144 356 1291 2228 1759 879 958 689 719 761 870 975 738 1481 1787 1693 2020 1476
0 0 0 3 0 0 0 0 0 0 0 0 0 0 0 0 0 0 0 0 0 0 0 0 0 0 0 0 1 9 5 0 0 182 1254 1213 595 1384 996 162 38 1134 1771 1535 1695 2289 2272 2263 2082
0 0 2 0 0 0 0 0 0 0 0 0 0 0 0 0 0 0 0 0 0 0 0 0 0 0 0 0 0 0 0 12 25 18 168 207 1263 1915 1803 529 881 800 2290 2059 2780 2639 2896 2441 2412
4 1 0 2 8 0 0 0 0 0 0 0 0 0 0 0 0 0 0 0 0 0 0 0 0 0 0 0 0 0 3 6 15 7 20 30 163 451 2383 2933 2798 2854 3015 3186 2961 2962 3104 3057 2440
33 28 15 4 11 10 0 0 0 0 0 0 0 0 0 0 0 0 0 0 0 0 0 0 0 0 0 0 0 0 0 0 0 1 2 2 42 133 309 3011 3013 3453 3390 3330 3288 3080 3137 2905 2543
9 43 39 11 0 0 0 6 2 0 0 0 0 0 0 0 0 0 0 0 0 0 0 0 0 0 0 0 0 0 0 0 0 3 36 74 201 185 128 1088 2709 2966 3123 3401 3397 3099 2986 2629 2660
64 68 43 23 12 22 3 0 0 0 0 0 0 0 0 0 0 0 0 0 0 0 0 0 0 0 0 0 0 0 0 0 1 0 74 136 308 507 1109 1071 1363 2552 2775 3236 3478 2936 2903 2357 2193
77 12 52 25 14 32 13 7 0 0 0 0 2 7 0 0 1 0 0 0 0 0 0 0 0 0 0 0 0 0 0 0 5 18 33 128 370 856 944 1238 1636 2057 2573 3228 3354 2807 2081 2277 2509
125 0 11 84 8 40 37 2 0 0 2 11 0 0 0 16 3 0 0 0 0 0 0 0 0 0 0 0 0 0 0 0 0 9 46 251 419 687 855 1046 1209 1731 2348 3006 3015 2463 1781 2503 2584
CIN
-0 -0 -0 -0 -0 -0 -0 -0 -0 -0 -0 -0 -0 -0 -0 -0 -0 -20 -90 -0 -0 -197 -480 -562 -573 -521 -423 -250 -239 -229 -231 -238 -222 -217 -204 -197 -191 -185 -186 -175 -151 -129 -149 -236 -0 -0 -0 -0 -0
-0 -0 -0 -0 -0 -0 -0 -0 -0 -0 -0 -0 -0 -0 -0 -0 -0 -0 -21 -170 -0 -209 -418 -519 -578 -522 -450 -248 -219 -241 -228 -194 -202 -210 -213 -205 -208 -204 -206 -218 -205 -188 -227 -107 -0 -0 -0 -0 -0
-0 -0 -0 -0 -0 -0 -0 -0 -0 -0 -0 -0 -0 -0 -0 -0 -0 -0 -0 -203 -0 -223 -347 -435 -582 -542 -480 -289 -190 -222 -217 -187 -199 -204 -204 -204 -223 -238 -239 -272 -251 -263 -281 -0 -0 -0 -0 -0 -0
-0 -0 -0 -0 -0 -0 -0 -0 -0 -0 -0 -0 -0 -0 -0 -0 -0 -0 -256 -222 -219 -199 -271 -406 -578 -536 -478 -359 -242 -195 -187 -178 -183 -186 -194 -216 -245 -269 -267 -303 -302 -2 -0 -0 -0 -0 -0 -0 -0
-0 -0 -0 -0 -0 -0 -0 -0 -0 -0 -0 -0 -0 -0 -0 -0 -0 -0 -265 -210 -188 -191 -231 -375 -567 -536 -482 -434 -274 -217 -186 -177 -173 -174 -192 -229 -246 -268 -292 -0 -0 -0 -0 -0 -0 -0 -0 -0 -0
-0 -0 -0 -0 -0 -0 -0 -0 -0 -0 -0 -0 -0 -0 -0 -0 -0 -0 -268 -190 -150 -182 -226 -277 -530 -524 -494 -453 -362 -250 -209 -179 -154 -154 -176 -223 -258 -270 -323 -0 -0 -0 -0 -0 -0 -0 -0 -0 -0
-0 -0 -0 -0 -0 -0 -0 -0 -0 -0 -0 -0 -0 -0 -0 -0 -0 -0 -220 -228 -169 -178 -214 -227 -443 -431 -464 -444 -396 -293 -238 -202 -163 -154 -174 -216 -268 -308 -364 -0 -0 -0 -0 -0 -0 -0 -0 -0 -0
-0 -0 -0 -0 -0 -0 -6 -0 -0 -0 -0 -0 -0 -0 -0 -0 -0 -0 -179 -223 -208 -189 -191 -181 -374 -374 -369 -362 -403 -367 -256 -219 -219 -229 -251 -274 -314 -360 -411 -320 -0 -0 -0 -0 -0 -0 -0 -0 -0
-0 -0 -0 -0 -0 -0 -0 -1 -0 -0 -0 -0 -0 -0 -0 -0 -0 -0 -0 -181 -186 -175 -196 -179 -275 -336 -336 -322 -335 -395 -342 -294 -269 -273 -290 -329 -351 -310 -320 -317 -350 -0 -0 -0 -0 -0 -0 -0 -0
-0 -0 -0 -0 -0 -0 -4 -5 -4 -0 -0 -0 -0 -0 -0 -0 -0 -0 -0 -162 -188 -166 -179 -182 -204 -244 -266 -280 -300 -343 -321 -317 -311 -326 -269 -301 -327 -242 -257 -257 -381 -380 -0 -0 -0 -0 -0 -0 -0
-0 -0 -0 -0 -0 -0 -5 -7 -6 -6 -0 -0 -0 -0 -1 -0 -0 -0 -0 -0 -107 -192 -161 -177 -147 -170 -196 -207 -247 -281 -335 -312 -283 -262 -230 -225 -256 -220 -198 -201 -257 -310 -397 -45 -397 -431 -0 -0 -0
-0 -0 -0 -0 -0 -0 -0 -7 -5 -10 -5 -0 -0 -0 -0 -0 -0 -0 -0 -0 -0 -170 -216 -201 -142 -136 -160 -146 -182 -198 -273 -252 -256 -249 -177 -149 -205 -184 -149 -169 -164 -187 -239 -291 -308 -270 -302 -302 -330
-0 -0 -0 -0 -0 -0 -0 -0 -0 -8 -7 -1 -0 -0 -0 -0 -0 -0 -0 -0 -0 -144 -150 -222 -215 -134 -115 -75 -130 -163 -187 -227 -214 -196 -177 -181 -160 -159 -136 -138 -148 -122 -141 -168 -172 -201 -215 -213 -245
-0 -0 -0 -0 -0 -0 -0 -0 -0 -0 -2 -12 -0 -0 -0 -0 -0 -0 -0 -0 -0 -121 -274 -148 -248 -184 -154 -120 -89 -123 -123 -176 -184 -175 -165 -155 -157 -122 -145 -164 -156 -150 -140 -139 -154 -182 -199 -216 -229
-0 -0 -0 -0 -0 -0 -0 -0 -0 -0 -0 -0 -0 -0 -0 -0 -0 -0 -0 -0 -0 -0 -0 -0 -121 -203 -178 -178 -109 -134 -209 -165 -158 -141 -142 -162 -159 -154 -175 -177 -169 -149 -161 -169 -175 -173 -230 -267 -282
-0 -0 -0 -0 -0 -0 -0 -0 -0 -0 -0 -0 -0 -0 -0 -0 -0 -0 -0 -0 -0 -0 -0 -0 -183 -126 -131 -133 -124 -135 -163 -201 -178 -175 -181 -202 -147 -177 -181 -185 -154 -148 -155 -183 -242 -222 -191 -262 -292
-0 -0 -0 -0 -0 -0 -0 -0 -0 -0 -0 -0 -0 -0 -0 -0 -0 -0 -0 -0 -0 -0 -0 -0 -209 -175 -65 -107 -127 -125 -171 -228 -227 -211 -191 -166 -207 -221 -202 -180 -166 -210 -263 -298 -351 -246 -196 -229 -213
-0 -0 -0 -0 -0 -0 -0 -0 -0 -0 -0 -0 -0 -0 -0 -0 -0 -0 -0 -0 -0 -0 -0 -0 -0 -255 -125 -63 -134 -110 -157 -193 -266 -255 -242 -227 -252 -262 -236 -255 -246 -301 -353 -377 -337 -288 -302 -204 -143
-0 -0 -0 -0 -0 -0 -0 -0 -0 -0 -0 -0 -0 -0 -0 -0 -0 -0 -0 -0 -0 -0 -0 -0 -0 -0 -242 -99 -106 -83 -131 -211 -265 -308 -240 -239 -242 -272 -282 -281 -286 -410 -357 -280 -354 -373 -315 -166 -141
-0 -0 -0 -0 -0 -0 -0 -0 -0 -0 -0 -0 -0 -0 -0 -0 -0 -0 -0 -0 -0 -0 -0 -0 -0 -0 -0 -7 -112 -91 -58 -95 -147 -246 -215 -299 -270 -223 -251 -286 -272 -301 -263 -280 -328 -299 -179 -123 -100
-0 -0 -0 -0 -0 -0 -0 -0 -0 -0 -0 -0 -0 -0 -0 -0 -0 -0 -0 -0 -0 -0 -0 -0 -0 -0 -357 -288 -0 -158 -140 -66 -74 -94 -71 -87 -186 -171 -241 -270 -278 -199 -226 -295 -346 -222 -189 -91 -71
-0 -0 -0 -0 -0 -0 -0 -0 -0 -0 -0 -0 -0 -0 -0 -0 -0 -0 -0 -0 -0 -0 -0 -0 -0 -0 -0 -331 -262 -259 -256 -91 -96 -106 -43 -78 -94 -83 -230 -213 -239 -160 -93 -208 -136 -160 -157 -176 -81
-0 -0 -4 -4 -0 -0 -0 -0 -0 -0 -0 -0 -0 -0 -0 -0 -0 -0 -0 -0 -0 -0 -0 -0 -0 -0 -0 -0 -86 -300 -256 -0 -0 -129 -96 -91 -155 -159 -191 -363 -229 -47 -4 -57 -104 -121 -190 -121 -109
-0 -1 -5 -5 -0 -0 -0 -0 -0 -1 -0 -0 -0 -0 -0 -0 -0 -0 -0 -0 -0 -0 -0 -0 -0 -0 -0 -0 -0 -0 -14 -287 -298 -254 -182 -153 -88 -55 -94 -199 -224 -220 -15 -40 -68 -94 -116 -179 -105
-6 -4 -7 -18 -11 -0 -4 -0 -0 -0 -0 -0 -0 -0 -0 -0 -0 -0 -0 -0 -0 -0 -0 -0 -0 -0 -0 -0 -0 -0 -306 -348 -370 -330 -295 -236 -140 -79 -33 -67 -17 -5 -5 -4 -39 -99 -74 -145 -118
-7 -8 -10 -4 -14 -30 -0 -0 -0 -0 -0 -0 -0 -0 -0 -0 -0 -0 -0 -0 -0 -0 -0 -0 -0 -0 -0 -0 -0 -0 -0 -0 -28 -204 -280 -311 -230 -177 -112 -22 -28 -0 -0 -30 -48 -61 -72 -99 -127
-11 -18 -5 -30 -0 -7 -0 -27 -12 -0 -0 -0 -0 -0 -0 -0 -0 -0 -0 -0 -0 -0 -0 -0 -0 -0 -0 -0 -0 -0 -0 -6 -42 -305 -300 -259 -175 -192 -240 -39 -13 -27 -18 -12 -39 -68 -68 -100 -74
-10 -8 -4 -9 -5 -9 -3 -3 -0 -0 -0 -0 -0 -0 -0 -0 -0 -0 -0 -0 -0 -0 -0 -0 -0 -0 -0 -0 -0 -0 -0 -0 -90 -0 -229 -178 -138 -110 -64 -65 -90 -36 -34 -20 -32 -68 -60 -112 -78
-12 -9 -5 -7 -47 -2 -7 -5 -0 -0 -0 -0 -3 -4 -0 -0 -2 -0 -0 -0 -0 -0 -0 -0 -0 -0 -0 -0 -0 -0 -0 -0 -93 -116 -173 -125 -98 -88 -100 -76 -57 -70 -46 -16 -19 -50 -121 -98 -44
-5 -0 -30 -3 -11 -5 -6 -2 -0 -0 -3 -5 -0 -0 -0 -6 -5 -1 -0 -0 -0 -0 -0 -0 -0 -0 -0 -0 -0 -0 -0 -0 -0 -61 -93 -45 -44 -86 -101 -99 -84 -43 -36 -13 -27 -77 -97 -51 -32
Wind_Speed
28 25 23 24 21 22 31 29 22 20 23 20 21 21 21 24 18 16 13 16 11 5 15 19 20 20 22 24 26 27 27 27 28 29 30 29 29 29 29 28 27 26 26 25 24 24 23 23 23
25 25 24 25 26 28 25 25 19 19 14 17 19 21 26 25 17 16 19 17 11 3 11 19 19 21 21 22 24 26 27 27 28 28 28 28 28 27 27 26 26 25 24 23 23 22 22 22 21
25 22 27 28 30 32 28 19 17 17 16 22 19 18 19 20 17 22 25 18 15 2 8 16 20 22 22 22 21 25 26 27 27 27 27 26 26 26 25 24 24 23 23 22 22 21 21 20 20
24 24 27 31 34 31 32 21 22 17 16 20 20 20 15 13 22 25 28 27 20 5 5 13 20 22 22 22 22 22 24 24 25 26 25 25 25 24 24 23 22 21 21 21 20 20 20 19 18
26 28 35 36 38 37 27 31 27 20 21 21 21 23 17 16 23 26 26 25 22 11 7 10 18 21 22 22 20 20 20 22 23 23 23 22 23 21 21 20 20 19 19 19 18 18 17 17 16
31 29 38 38 38 38 29 31 32 33 28 24 23 25 22 16 24 25 24 23 18 10 8 8 16 20 21 21 20 18 18 17 18 19 19 19 20 19 19 18 18 17 16 16 16 16 15 15 14
33 35 40 43 42 35 28 30 30 32 29 23 22 21 20 19 25 24 22 21 19 10 11 8 13 14 16 17 17 16 14 14 13 13 14 15 16 16 16 16 15 15 14 13 13 13 12 12 12
29 35 45 45 42 42 29 28 27 30 33 24 20 23 22 21 25 24 21 20 20 13 13 10 12 14 13 14 12 13 11 9 10 9 10 10 11 12 13 13 13 12 12 11 11 10 10 9 9
21 40 44 43 42 39 34 28 26 27 31 26 25 26 23 22 25 24 22 18 21 17 15 13 13 13 13 13 12 10 8 7 6 5 5 7 10 10 10 11 10 9 9 8 8 8 7 7 6
21 32 42 38 38 38 38 37 26 27 32 37 33 27 23 25 26 24 24 21 20 22 19 16 15 14 13 12 12 12 10 9 7 7 8 9 8 8 9 8 6 6 5 6 5 5 5 6 4
22 33 33 34 36 41 41 40 33 31 32 34 37 35 28 28 28 27 25 20 20 26 23 22 19 17 15 14 12 12 11 10 9 9 7 5 4 4 4 4 4 3 3 4 4 5 4 4 4
31 30 33 37 43 40 40 39 42 36 36 28 29 37 33 31 30 30 28 23 21 26 25 26 21 20 19 17 16 15 14 11 9 9 8 6 4 2 1 2 3 5 4 5 4 6 7 7 4
29 33 34 36 37 41 39 37 41 43 38 33 34 36 37 33 31 30 29 24 21 24 25 25 28 27 24 27 23 22 16 14 12 10 9 9 7 7 5 6 4 5 7 7 8 8 10 10 7
30 32 36 37 35 34 39 41 39 44 40 38 35 38 39 38 32 28 28 26 23 23 26 29 28 29 32 36 33 29 22 16 16 14 12 11 12 12 7 9 7 7 9 8 9 11 10 9 8
30 36 34 33 33 32 31 42 44 41 41 43 39 40 38 37 35 32 28 27 25 25 25 29 30 26 30 31 43 35 30 31 27 28 21 18 16 19 12 11 11 10 9 10 10 10 11 11 8
29 31 38 32 28 30 29 48 33 35 38 42 39 41 39 39 33 33 30 29 26 25 25 27 31 29 29 31 37 33 33 34 33 28 28 23 18 21 17 18 13 7 8 7 10 9 5 11 10
27 36 34 34 30 26 24 38 29 27 29 32 37 35 40 36 31 29 29 29 29 27 25 25 28 32 33 31 33 34 41 37 30 36 30 25 26 21 20 19 12 13 10 8 7 10 9 10 14
30 30 30 34 20 23 31 35 29 27 23 30 32 35 38 33 30 24 25 28 28 28 26 25 23 27 36 34 29 35 44 37 33 37 31 32 31 28 26 22 22 10 16 10 7 8 13 12 13
36 36 37 32 24 27 30 32 31 21 19 26 31 35 36 36 31 26 25 28 30 30 29 26 27 25 25 38 38 38 35 38 40 38 38 38 32 31 32 27 18 14 13 10 8 9 13 13 14
33 35 36 34 28 29 33 36 32 32 29 30 33 31 34 37 32 33 27 31 32 34 30 29 30 28 24 25 32 39 33 34 32 32 32 40 31 35 35 24 23 18 15 15 13 13 13 17 15
32 33 33 33 29 26 33 42 38 36 36 33 33 31 31 31 31 31 32 29 34 34 33 30 32 30 32 25 29 33 38 42 31 30 30 27 33 41 39 34 28 27 19 18 17 15 14 18 16
33 28 30 34 32 38 28 40 28 24 21 27 26 23 24 27 25 24 25 27 25 30 32 31 32 34 34 30 32 33 35 36 33 38 30 29 25 36 32 28 33 29 28 20 18 15 15 15 13
32 30 31 29 33 37 37 38 36 33 26 22 21 19 17 18 20 19 19 20 22 23 28 28 29 31 32 33 36 34 35 34 35 35 29 28 30 31 25 32 34 45 34 20 19 16 15 16 14
30 33 30 32 33 41 37 36 39 29 24 19 16 16 17 20 16 18 20 19 21 19 23 27 29 29 29 30 30 33 37 39 36 35 34 35 30 25 28 25 20 22 20 21 19 18 15 14 13
23 29 38 37 34 39 30 27 27 19 15 14 14 14 20 20 20 22 23 25 24 23 24 24 28 32 31 32 33 34 35 35 37 36 38 37 36 33 27 22 22 22 20 20 19 19 17 16 16
22 28 33 35 35 34 17 27 29 24 14 16 19 23 23 21 20 21 24 24 26 26 25 27 27 27 28 30 35 36 38 39 40 38 38 38 36 36 35 24 21 21 22 22 21 20 19 18 16
30 28 33 42 43 43 36 34 21 15 17 18 22 20 17 18 22 25 25 26 27 27 27 28 29 30 31 32 32 33 36 39 42 43 42 42 38 40 40 33 29 28 27 26 24 21 21 18 16
31 23 31 35 42 42 40 41 38 19 17 17 17 18 20 22 27 30 31 30 29 28 29 30 31 32 33 34 34 35 36 36 38 40 43 42 42 41 38 35 33 32 30 28 27 23 20 18 16
27 26 26 30 25 30 36 31 23 11 12 12 16 19 23 27 33 33 33 31 31 30 31 32 33 33 34 34 35 35 37 38 39 40 42 43 42 41 40 38 34 30 28 24 22 21 18 17 16
34 26 28 28 37 41 42 45 17 14 17 17 19 22 27 31 31 32 32 31 31 31 33 34 36 36 36 37 37 38 38 39 40 41 42 43 43 42 39 37 35 29 24 22 19 19 16 15 14
Wind_Direction
287 287 285 270 274 273 262 264 273 280 274 276 280 268 270 278 294 292 321 302 322 67 114 123 120 116 117 120 122 122 121 117 119 120 118 116 114 112 110 109 106 104 103 100 96 90 84 80 79
293 290 280 271 269 266 269 270 273 276 288 285 281 277 272 271 300 302 315 296 304 65 116 129 126 123 121 121 123 124 123 121 122 122 119 116 115 113 111 108 107 104 101 100 96 92 89 84 79
290 294 274 267 264 262 266 285 284 276 286 281 283 282 286 280 296 289 283 300 286 289 130 132 133 132 128 126 125 127 126 126 126 125 122 119 117 114 112 108 107 101 100 100 98 95 91 88 84
285 280 274 266 264 263 265 293 277 288 291 278 283 285 290 298 292 289 279 266 273 252 164 137 140 137 134 132 131 129 129 128 128 128 126 123 122 119 116 110 107 100 101 100 99 96 90 90 89
278 274 265 264 262 261 270 271 272 282 285 283 279 274 286 299 298 292 282 275 261 246 166 151 147 142 139 136 134 133 131 132 132 129 128 124 125 121 116 112 106 101 101 100 96 99 94 90 90
270 270 264 265 263 263 274 270 270 267 277 281 281 271 282 301 302 294 289 278 262 235 191 177 157 149 145 142 140 138 136 133 131 129 127 125 125 123 119 116 111 107 101 100 99 99 98 89 86
266 265 263 263 264 266 268 273 269 270 269 279 279 275 280 300 297 294 294 279 266 231 220 197 177 166 155 148 146 143 142 137 131 126 124 124 123 122 122 121 117 112 104 95 96 99 97 90 88
269 267 263 262 264 264 274 270 275 271 265 278 280 277 275 302 295 289 297 279 262 235 222 220 195 177 174 163 162 154 153 149 138 130 124 121 118 119 119 121 125 114 105 101 91 99 96 91 87
269 264 263 263 265 268 272 271 272 274 267 277 274 274 286 301 297 291 289 285 258 241 229 225 207 192 187 176 179 185 192 192 170 149 137 128 131 127 126 130 123 117 108 97 83 82 79 74 78
253 266 265 271 271 271 270 268 273 269 266 262 271 272 282 286 290 291 285 284 262 247 238 233 221 206 200 200 198 192 190 191 192 174 156 153 143 135 134 126 116 108 87 84 76 68 63 44 62
256 265 276 276 274 272 272 268 271 266 265 268 262 264 286 283 282 282 286 282 271 250 245 241 233 225 217 216 215 218 210 197 194 188 183 174 160 138 103 91 71 77 71 56 57 37 37 35 46
268 270 277 278 272 275 273 273 267 270 267 273 274 268 269 281 281 279 276 283 273 257 247 245 237 235 232 233 233 235 225 217 210 202 209 245 228 263 334 37 45 37 40 29 24 25 24 20 32
272 277 276 278 276 273 277 271 271 269 271 272 273 273 266 269 282 278 272 277 269 265 262 242 243 240 241 245 244 242 234 232 233 234 223 238 250 273 294 316 335 353 6 3 4 4 1 3 6
282 280 279 277 277 279 273 272 274 269 271 270 272 272 268 263 270 280 274 272 268 269 261 256 243 244 242 239 246 244 249 243 247 248 251 241 261 278 284 304 314 326 333 350 355 354 357 3 1
282 279 282 280 276 276 279 273 269 274 272 269 268 266 268 268 261 268 273 271 269 269 267 258 248 243 244 245 239 244 246 246 250 251 256 258 260 273 280 294 304 316 326 333 349 352 345 351 351
286 282 278 280 277 276 274 272 278 277 273 264 268 266 267 267 263 264 265 263 267 271 273 267 254 242 247 248 246 250 251 248 253 254 257 261 263 269 278 286 294 300 314 326 326 343 332 340 351
282 279 281 281 279 276 270 276 282 279 277 269 269 269 266 265 263 265 261 259 263 267 273 273 265 252 250 250 250 250 249 253 256 250 260 265 265 270 272 279 284 295 294 315 314 333 329 319 335
282 282 281 280 284 277 280 279 282 282 274 273 272 270 264 264 263 265 260 261 263 262 268 272 273 264 250 251 258 255 251 254 254 253 260 265 268 269 270 278 279 276 295 283 293 302 334 335 340
280 284 281 285 286 284 283 284 282 276 271 278 276 270 265 259 266 267 266 267 261 261 260 267 272 277 274 250 251 253 262 255 260 257 255 261 270 271 267 276 275 268 276 259 276 298 319 327 335
283 280 279 282 285 283 284 282 283 278 277 278 276 273 267 262 264 265 272 268 263 262 265 264 269 274 276 272 253 254 263 266 267 262 258 259 267 271 272 270 275 268 269 265 273 289 310 319 327
283 281 281 280 285 286 286 280 281 279 275 276 275 274 271 263 262 267 266 273 266 263 264 266 264 269 271 274 266 262 260 264 271 270 262 267 264 266 273 273 276 280 262 265 262 283 291 309 315
282 288 283 280 282 277 287 280 283 295 278 277 275 274 272 270 269 269 272 271 282 265 265 268 272 266 271 269 271 266 264 267 265 267 274 273 252 268 274 273 278 281 279 262 272 273 282 303 303
285 287 287 285 282 281 278 280 282 282 274 275 274 273 273 278 278 273 276 279 287 280 267 269 272 271 269 267 266 267 268 270 269 269 274 273 271 264 262 272 282 277 231 256 266 273 278 298 304
294 286 284 282 281 275 278 277 278 282 273 270 268 272 277 282 282 282 284 285 286 290 276 272 271 273 275 274 276 273 269 269 272 276 277 276 277 275 276 278 265 259 253 250 270 271 280 285 293
290 285 279 274 270 275 284 277 274 300 293 273 260 274 285 284 280 284 286 284 285 286 282 282 275 276 278 275 273 273 272 273 272 274 273 274 277 279 279 274 269 260 254 266 271 276 281 288 286
283 281 274 276 274 278 293 279 284 277 275 278 282 283 286 284 285 289 289 290 289 286 285 283 285 285 287 286 277 274 273 273 273 273 273 274 276 278 280 273 263 259 265 271 275 278 280 284 285
280 271 280 275 270 273 274 276 298 287 277 277 281 281 282 287 289 290 293 294 292 290 289 288 286 287 287 286 287 283 278 275 273 272 273 273 276 276 277 280 274 271 271 273 276 277 277 278 282
280 288 277 274 268 268 272 276 282 265 265 273 277 279 282 288 291 289 288 291 294 293 291 289 287 287 288 287 286 283 282 281 280 275 272 273 274 275 278 278 276 274 273 273 271 273 274 271 279
278 269 272 274 278 275 274 277 308 283 277 263 282 289 289 289 290 290 290 292 293 293 293 292 291 289 288 288 288 285 283 282 280 277 275 274 273 273 275 277 277 275 274 267 263 266 267 267 274
272 272 273 274 270 271 273 267 291 295 291 287 289 293 291 294 295 293 295 295 295 295 293 292 291 290 290 288 287 286 285 283 282 280 277 275 274 272 273 274 274 273 271 263 256 258 263 264 271